Temp
64 62 59 57 57 57 55 55 52 50 50 51 48 53 51 50 53 52 52 51 50 51 50 50 49 49 49 49 49 48 47 46 41 45 46 46 43 43 43 44 43 42 43
58 60 59 57 56 55 54 51 50 48 51 50 51 50 53 51 52 52 50 51 49 49 50 49 49 49 48 49 48 46 46 46 43 40 44 42 41 42 41 40 41 42 42
58 58 57 56 55 55 54 52 51 51 49 51 53 53 52 52 52 50 48 49 48 49 50 49 49 48 47 48 47 46 46 44 43 40 40 42 40 41 40 40 40 40 41
58 58 56 55 55 55 55 53 50 51 49 52 52 53 51 51 49 46 47 49 48 49 48 47 48 47 47 47 46 45 44 42 42 40 39 39 39 40 38 36 36 39 38
56 57 56 55 55 55 52 48 48 47 48 48 46 48 47 45 45 44 46 48 48 48 47 47 47 46 44 45 46 45 43 41 40 39 37 37 37 37 35 36 34 36 37
55 55 55 54 53 50 48 46 46 47 46 50 46 45 46 46 40 40 42 48 47 46 46 47 47 41 41 38 38 38 42 41 38 38 37 35 36 36 36 34 33 31 30
53 53 52 52 50 47 46 46 44 46 46 45 45 45 44 45 40 40 39 46 46 46 46 47 46 45 42 45 39 37 35 34 36 39 35 36 34 36 35 33 33 33 32
50 49 50 50 49 48 47 44 44 44 43 43 43 46 45 43 39 39 38 45 46 46 46 46 46 46 44 43 42 41 41 40 38 37 38 38 38 38 36 34 33 33 35
47 47 48 49 48 47 46 43 43 43 42 44 46 43 41 40 39 38 38 43 43 44 45 44 44 45 41 37 39 38 38 39 37 35 34 34 33 32 34 35 31 31 28
46 47 48 48 47 45 46 44 45 46 45 43 39 39 39 43 40 37 38 42 40 41 43 42 37 42 37 35 38 36 34 38 38 37 37 36 35 36 33 35 35 29 29
48 48 48 49 48 48 45 43 41 40 39 39 41 43 43 42 43 38 37 40 39 39 40 41 41 35 35 35 36 36 34 38 35 36 37 37 37 37 37 38 37 34 29
46 45 44 44 42 42 43 43 43 43 41 40 38 40 42 41 38 38 37 36 38 36 37 40 40 36 35 35 36 36 33 32 35 34 33 33 34 35 37 38 37 36 36
43 41 41 41 41 41 41 41 41 41 39 38 38 38 39 40 41 37 35 35 35 35 38 38 36 35 35 34 35 35 33 34 33 31 31 33 35 37 37 35 35 35 35
38 38 38 38 39 40 41 40 39 38 37 36 36 35 35 37 38 39 39 40 37 36 35 37 35 34 34 36 36 35 36 36 34 33 33 35 36 33 32 34 32 32 30
37 36 36 36 36 37 37 36 35 37 35 33 34 33 31 30 32 32 32 32 33 34 33 34 34 34 35 35 36 35 35 34 31 31 32 32 31 32 32 33 31 31 28
34 34 32 33 33 33 33 33 32 31 31 31 31 30 31 30 29 29 30 30 31 32 32 31 32 32 32 32 31 31 32 31 32 31 30 31 31 31 31 32 31 29 28
31 30 31 30 30 29 29 28 27 30 29 29 28 28 28 27 27 27 28 27 30 32 32 33 32 32 33 32 31 31 31 33 33 31 29 29 30 30 29 30 30 29 28
29 26 28 28 28 27 26 26 26 24 23 25 27 26 24 24 24 25 26 26 25 26 27 29 31 33 33 33 34 32 32 33 31 30 29 30 29 30 29 29 30 28 28
28 26 26 25 25 23 24 24 24 23 22 22 23 24 22 20 22 23 23 21 20 21 22 23 24 26 33 34 33 31 31 31 31 29 29 29 29 29 29 30 31 26 24
25 21 22 23 22 21 21 20 20 20 19 19 19 18 19 17 17 18 19 19 19 19 19 20 22 24 24 33 33 32 31 30 30 30 29 29 29 29 29 29 29 28 27
23 21 18 20 20 19 18 17 17 17 16 16 16 16 12 14 15 16 17 16 16 17 17 18 20 21 22 29 34 31 31 31 31 30 29 29 28 27 29 31 30 29 29
19 18 18 17 17 15 14 15 15 13 13 13 13 14 11 14 14 14 15 14 14 16 17 16 17 18 21 20 25 31 30 29 29 30 29 28 27 28 29 29 29 28 28
16 14 15 15 13 11 11 11 11 10 10 11 11 10 11 11 10 11 12 11 12 13 14 14 15 16 17 18 20 24 31 30 32 32 29 28 27 28 28 28 28 27 27
15 13 13 12 10 9 8 6 8 7 7 8 8 8 8 8 8 9 10 10 9 11 12 12 13 14 14 15 19 22 26 29 33 32 30 29 27 27 29 29 28 27 26
13 11 11 9 6 5 5 5 5 5 5 5 6 6 6 6 7 7 8 8 7 8 8 10 12 13 13 13 16 18 20 24 29 31 31 30 28 27 29 28 28 27 26
12 10 9 8 6 5 4 3 3 3 2 3 4 4 4 4 5 5 5 6 5 4 6 8 10 10 12 14 16 16 17 20 23 27 30 30 29 28 28 27 27 26 24
MSLP
1015.34 1015.89 1016.60 1017.37 1018.09 1018.86 1019.48 1020.30 1021.07 1021.79 1022.22 1022.85 1023.39 1023.94 1024.50 1024.73 1024.68 1025.07 1025.20 1025.40 1025.51 1025.66 1026.06 1026.37 1026.38 1026.49 1026.65 1026.83 1027.10 1027.23 1027.16 1027.15 1026.64 1026.27 1026.94 1027.23 1027.33 1027.08 1026.95 1026.78 1026.46 1025.98 1025.32
1015.41 1015.92 1016.57 1017.18 1017.90 1018.58 1018.91 1019.54 1020.13 1020.53 1021.66 1022.42 1022.80 1023.14 1023.35 1023.91 1024.46 1024.85 1025.05 1025.27 1025.38 1025.30 1025.39 1025.70 1025.82 1025.98 1026.09 1026.30 1026.51 1026.57 1026.62 1026.69 1026.72 1026.16 1026.29 1026.84 1026.94 1026.83 1026.73 1026.47 1025.98 1025.61 1025.07
1015.27 1015.88 1016.63 1017.23 1017.91 1018.43 1018.94 1019.62 1020.13 1020.73 1021.40 1022.02 1022.55 1022.98 1023.59 1023.74 1024.18 1024.68 1024.86 1024.98 1025.05 1025.07 1025.04 1025.13 1025.09 1025.36 1025.43 1025.60 1025.88 1026.00 1026.12 1026.37 1026.48 1026.35 1025.95 1026.32 1026.57 1026.48 1026.21 1025.85 1025.43 1025.03 1024.61
1015.21 1015.75 1016.40 1016.91 1017.54 1018.16 1018.63 1019.21 1019.69 1020.28 1021.10 1021.90 1022.68 1023.43 1023.70 1023.93 1024.47 1024.85 1025.06 1024.78 1024.64 1024.61 1024.64 1024.69 1024.50 1024.58 1024.65 1024.89 1025.18 1025.46 1025.68 1025.92 1026.02 1026.01 1025.78 1025.74 1025.82 1025.87 1025.94 1025.39 1024.80 1024.48 1023.95
1015.16 1015.67 1016.11 1016.67 1017.28 1017.85 1018.56 1019.23 1019.85 1020.43 1020.97 1021.65 1022.16 1022.75 1023.76 1023.88 1024.39 1024.53 1024.68 1024.46 1024.17 1024.01 1023.84 1023.77 1023.66 1023.66 1023.94 1024.15 1024.66 1024.85 1025.23 1025.38 1025.52 1025.54 1025.33 1025.25 1025.21 1025.20 1025.21 1025.16 1024.78 1024.18 1023.57
1015.32 1015.74 1016.19 1016.80 1017.42 1018.14 1018.87 1019.52 1020.24 1020.96 1021.34 1021.93 1022.12 1022.41 1023.07 1023.75 1024.02 1024.42 1024.32 1024.00 1023.57 1023.24 1022.79 1022.67 1022.70 1023.27 1023.52 1023.92 1024.31 1024.57 1024.72 1024.86 1025.10 1025.14 1024.95 1024.79 1024.82 1024.95 1025.06 1024.96 1024.63 1023.96 1022.95
1015.74 1016.15 1016.61 1017.19 1017.81 1018.53 1019.14 1019.81 1020.53 1021.13 1021.78 1022.09 1022.61 1022.98 1023.42 1023.41 1023.61 1023.89 1023.66 1023.61 1023.04 1022.48 1022.15 1021.96 1021.97 1022.23 1022.65 1022.99 1023.61 1024.06 1024.51 1024.76 1024.98 1024.91 1024.72 1024.50 1024.51 1024.68 1024.76 1024.60 1024.21 1023.75 1022.95
1016.62 1017.01 1017.39 1017.72 1018.28 1019.02 1019.64 1020.38 1020.99 1021.58 1022.14 1022.41 1022.81 1023.09 1023.28 1023.29 1023.38 1023.58 1023.36 1023.02 1022.41 1021.82 1021.59 1021.39 1021.32 1021.43 1021.81 1022.32 1022.76 1023.13 1023.46 1023.83 1024.14 1024.40 1024.22 1024.09 1024.15 1024.34 1024.46 1024.36 1024.09 1023.49 1022.72
1017.84 1018.11 1018.37 1018.68 1019.12 1019.65 1020.28 1020.93 1021.45 1021.99 1022.36 1022.57 1022.78 1022.90 1022.99 1022.86 1022.90 1022.97 1022.92 1022.38 1021.69 1021.10 1020.85 1020.69 1020.65 1020.73 1021.03 1021.74 1022.17 1022.41 1022.65 1022.91 1023.49 1023.80 1023.89 1023.95 1024.12 1024.26 1024.25 1023.79 1023.30 1022.71 1022.02
1018.81 1019.10 1019.40 1019.74 1020.07 1020.47 1020.95 1021.39 1021.78 1022.02 1022.20 1022.41 1022.49 1022.53 1022.53 1022.44 1022.39 1022.41 1022.24 1021.84 1021.14 1020.54 1020.17 1020.06 1020.17 1020.17 1020.48 1020.98 1021.38 1021.65 1021.81 1021.78 1022.35 1022.81 1022.97 1023.04 1023.25 1023.09 1023.40 1023.33 1022.71 1022.38 1021.92
1019.80 1020.03 1020.26 1020.49 1020.80 1021.10 1021.44 1021.74 1021.95 1022.12 1022.30 1022.41 1022.41 1022.27 1022.23 1022.08 1021.75 1021.58 1021.40 1021.22 1020.70 1020.05 1019.72 1019.42 1019.45 1019.59 1019.89 1020.28 1020.55 1020.80 1020.78 1021.11 1021.56 1021.92 1022.00 1021.97 1022.03 1022.04 1022.03 1022.02 1022.01 1022.02 1021.68
1020.55 1020.78 1021.11 1021.41 1021.61 1021.71 1021.72 1021.91 1022.04 1022.13 1022.18 1022.10 1021.99 1021.73 1021.53 1021.41 1021.16 1020.85 1020.61 1020.35 1019.97 1019.79 1019.15 1018.78 1018.70 1018.79 1018.96 1019.32 1019.73 1019.75 1020.07 1020.59 1020.87 1021.08 1021.15 1021.10 1021.11 1021.10 1020.99 1021.05 1021.21 1021.34 1021.17
1021.31 1021.63 1021.93 1022.09 1022.20 1022.30 1022.26 1022.23 1022.16 1022.21 1022.24 1022.10 1021.89 1021.54 1021.15 1021.09 1020.86 1020.65 1020.18 1019.80 1019.40 1019.11 1018.49 1018.01 1017.91 1017.99 1018.09 1018.15 1018.03 1018.42 1019.10 1019.67 1019.83 1020.01 1019.97 1019.95 1020.09 1020.22 1020.30 1020.64 1020.77 1020.71 1020.47
1022.09 1022.45 1022.68 1022.70 1022.77 1022.85 1022.78 1022.83 1022.68 1022.69 1022.64 1022.46 1022.21 1021.85 1021.47 1021.19 1020.90 1020.56 1020.18 1019.54 1018.88 1018.45 1017.98 1017.42 1017.10 1016.93 1016.93 1016.79 1017.01 1017.40 1017.82 1018.12 1018.36 1018.48 1018.71 1018.96 1019.28 1019.72 1019.81 1019.88 1020.00 1019.97 1019.88
1022.94 1023.22 1023.29 1023.32 1023.22 1023.19 1023.25 1023.49 1023.55 1023.51 1023.58 1023.23 1022.89 1022.65 1022.22 1021.67 1021.60 1021.45 1020.73 1019.83 1019.11 1018.34 1017.55 1016.74 1016.16 1015.97 1015.59 1015.48 1015.70 1015.93 1016.32 1016.85 1017.16 1017.45 1017.73 1018.07 1018.45 1018.71 1018.87 1019.09 1019.31 1019.33 1019.21
1023.54 1023.86 1024.09 1024.01 1024.01 1023.95 1023.97 1023.94 1024.26 1024.23 1023.94 1023.79 1023.64 1023.37 1023.01 1022.55 1021.90 1021.16 1020.29 1019.47 1018.62 1017.79 1016.80 1016.03 1015.13 1014.73 1014.51 1014.40 1014.09 1014.33 1014.89 1015.45 1015.69 1016.10 1016.49 1016.90 1017.25 1017.62 1017.93 1018.25 1018.58 1018.67 1018.49
1024.25 1024.63 1024.71 1024.72 1024.69 1024.62 1024.54 1024.37 1024.06 1023.84 1023.99 1023.97 1023.78 1023.44 1023.09 1022.91 1022.23 1021.30 1020.18 1019.18 1017.80 1016.80 1015.94 1014.99 1014.14 1013.53 1013.09 1013.25 1013.39 1013.35 1013.32 1013.73 1014.43 1014.94 1015.36 1015.61 1016.16 1016.58 1017.08 1017.36 1017.65 1017.89 1017.87
1025.01 1025.31 1025.08 1025.06 1025.10 1025.02 1024.87 1024.68 1024.47 1024.20 1023.92 1023.76 1023.65 1023.60 1023.42 1023.04 1022.28 1021.41 1020.54 1019.32 1018.21 1017.40 1016.67 1015.53 1014.15 1013.17 1012.58 1012.32 1012.28 1012.27 1012.37 1012.57 1013.18 1013.81 1014.24 1014.53 1015.01 1015.48 1016.04 1016.47 1016.77 1017.08 1017.23
1025.32 1025.46 1025.54 1025.58 1025.65 1025.68 1025.50 1025.21 1024.86 1024.68 1024.42 1024.12 1023.77 1023.46 1023.48 1023.30 1022.33 1021.61 1020.99 1020.12 1019.35 1018.43 1017.45 1016.39 1015.43 1014.29 1012.49 1011.55 1011.28 1011.46 1011.62 1011.49 1012.07 1012.75 1013.22 1013.57 1014.00 1014.46 1014.98 1015.50 1015.88 1016.46 1016.84
1025.93 1026.29 1026.27 1026.12 1026.08 1026.09 1026.00 1025.74 1025.50 1025.30 1025.06 1024.74 1024.37 1024.04 1023.65 1023.11 1022.19 1021.66 1021.28 1020.66 1019.88 1019.05 1018.15 1017.04 1015.90 1014.59 1013.35 1010.76 1010.43 1010.45 1010.74 1010.97 1011.35 1011.85 1012.23 1012.57 1013.08 1013.59 1014.04 1014.64 1015.17 1015.58 1016.07
1026.44 1026.64 1026.94 1026.68 1026.63 1026.73 1026.63 1026.41 1026.28 1026.07 1025.84 1025.47 1025.10 1024.85 1024.83 1023.94 1022.89 1022.25 1021.65 1021.11 1020.43 1019.50 1018.59 1017.54 1016.25 1014.90 1013.34 1011.12 1009.38 1009.42 1009.78 1010.07 1010.50 1010.96 1011.40 1011.69 1012.18 1012.77 1013.21 1013.75 1014.32 1014.92 1015.26
1027.09 1027.22 1027.16 1027.18 1027.24 1027.31 1027.33 1027.09 1026.88 1026.69 1026.41 1026.01 1025.56 1025.12 1024.81 1024.02 1023.45 1022.74 1022.13 1021.58 1020.93 1019.97 1019.13 1018.06 1016.73 1015.51 1014.08 1012.77 1011.01 1009.14 1009.10 1009.39 1009.73 1010.14 1010.53 1010.92 1011.36 1011.92 1012.46 1013.01 1013.60 1014.17 1014.68
1027.70 1027.81 1027.69 1027.72 1027.89 1028.02 1027.86 1027.70 1027.41 1027.22 1026.89 1026.47 1026.08 1025.53 1024.95 1024.38 1023.89 1023.14 1022.52 1021.92 1021.15 1020.16 1019.27 1018.34 1017.09 1015.78 1014.69 1013.50 1012.13 1010.65 1009.02 1008.76 1008.83 1009.19 1009.59 1010.03 1010.50 1010.99 1011.64 1012.18 1012.82 1013.47 1013.98
1028.04 1028.17 1028.14 1028.23 1028.43 1028.37 1028.31 1028.11 1027.88 1027.67 1027.40 1026.82 1026.37 1025.90 1025.31 1024.74 1024.11 1023.43 1022.77 1022.07 1021.33 1020.37 1019.42 1018.37 1017.26 1016.16 1015.10 1013.84 1012.53 1011.33 1010.14 1009.02 1008.27 1008.48 1008.90 1009.25 1009.69 1010.27 1010.84 1011.39 1012.01 1012.65 1013.31
1028.37 1028.46 1028.54 1028.65 1028.79 1028.79 1028.73 1028.50 1028.20 1027.94 1027.50 1027.01 1026.51 1026.02 1025.45 1024.85 1024.21 1023.56 1022.87 1022.17 1021.42 1020.45 1019.51 1018.40 1017.20 1016.19 1015.16 1014.10 1012.90 1012.06 1010.80 1009.46 1008.25 1008.02 1008.25 1008.58 1008.98 1009.41 1010.00 1010.64 1011.30 1012.03 1012.71
1028.53 1028.63 1028.69 1028.84 1028.87 1028.91 1028.79 1028.66 1028.35 1028.00 1027.57 1027.12 1026.64 1026.06 1025.48 1024.88 1024.30 1023.69 1022.96 1022.16 1021.35 1020.57 1019.41 1018.27 1017.16 1016.17 1015.10 1013.98 1012.97 1012.22 1011.23 1010.40 1009.39 1008.52 1008.07 1008.16 1008.46 1008.97 1009.57 1010.07 1010.74 1011.39 1012.12
Wind_Speed
14 13 12 12 13 13 13 13 12 10 11 12 10 11 9 7 7 6 6 6 8 8 7 8 9 8 6 6 6 6 7 7 10 9 4 6 9 10 10 10 11 12 11
9 11 12 11 12 12 13 12 13 16 14 11 11 11 12 10 8 7 7 7 9 10 10 9 11 7 10 9 7 9 7 7 8 13 10 7 9 9 10 11 10 9 11
8 8 8 9 10 11 11 11 12 13 11 10 11 12 10 9 7 5 6 9 10 11 11 11 11 10 10 9 9 8 7 6 7 8 10 6 8 8 9 10 10 11 9
8 8 9 9 10 10 11 12 12 11 9 9 8 6 6 5 2 1 8 12 11 11 12 12 12 12 12 11 10 10 8 7 7 8 9 8 8 7 7 8 9 9 10
8 8 8 8 9 9 9 8 8 9 9 8 9 8 5 4 3 4 12 12 12 13 13 13 13 14 14 11 7 9 9 8 7 8 8 8 8 7 9 8 9 10 11
3 4 4 6 7 7 8 7 7 5 6 8 8 8 6 2 4 10 12 11 12 12 13 13 13 13 13 13 14 10 9 9 10 8 8 8 10 8 7 7 9 10 11
3 3 4 6 7 8 8 8 7 8 7 8 6 4 2 6 6 12 10 10 10 11 12 12 11 9 11 11 12 13 12 13 12 9 10 10 9 8 8 9 10 11 12
7 6 6 8 9 10 10 11 10 8 6 4 3 4 6 5 7 11 13 13 12 13 12 13 13 13 13 12 11 11 12 11 13 10 11 10 9 8 8 9 11 13 12
10 10 9 10 12 13 13 10 7 5 3 4 6 5 6 6 10 12 11 11 12 13 11 12 13 14 13 16 11 11 11 11 11 15 14 13 12 13 13 9 9 10 11
12 12 12 12 12 11 9 6 4 2 3 2 3 6 8 11 11 13 11 7 11 9 10 11 13 14 11 17 13 11 11 12 10 10 10 12 13 12 13 11 9 9 10
12 11 10 9 7 5 4 3 3 2 2 4 6 8 9 11 13 13 13 9 9 9 9 8 9 16 16 18 18 12 12 10 9 9 8 8 8 9 8 8 8 8 9
10 10 10 8 6 5 6 5 5 5 6 7 7 8 7 9 11 12 14 14 13 9 11 9 10 15 19 19 16 18 17 10 7 8 8 8 8 8 8 7 8 8 9
10 10 8 8 8 7 6 6 5 5 5 6 7 8 9 8 9 12 15 16 16 11 10 13 15 15 19 18 23 20 15 10 10 10 10 9 9 8 7 6 7 9 10
10 10 8 8 6 7 5 5 5 6 7 7 8 9 10 10 10 10 10 11 11 10 13 13 13 14 14 13 11 14 11 11 11 11 11 9 7 6 7 6 6 5 6
8 7 7 6 7 7 7 7 6 6 8 8 8 9 10 10 10 19 18 12 12 13 13 10 10 10 12 11 11 11 10 11 11 10 10 9 8 8 8 6 6 5 7
7 6 6 6 6 6 6 6 7 9 10 11 14 11 9 16 25 27 27 26 26 22 12 11 12 11 11 11 11 11 10 12 12 11 10 10 10 9 8 7 6 6 6
8 6 5 6 5 6 6 6 7 6 8 9 13 15 16 19 23 25 26 29 25 16 10 11 10 12 11 10 9 9 11 11 11 10 10 10 10 9 8 8 7 6 6
7 8 5 5 5 5 6 7 7 8 8 8 10 13 15 20 24 22 24 20 13 13 12 13 13 10 10 11 10 10 10 8 10 10 10 10 10 10 8 8 8 7 6
6 5 5 5 5 6 6 6 7 8 8 9 9 9 12 20 20 19 20 10 12 12 12 13 12 14 13 10 9 8 9 8 9 9 10 10 10 10 10 9 8 7 6
6 9 6 5 5 5 5 6 7 7 8 9 9 11 12 14 11 11 11 11 11 12 12 14 14 12 16 12 9 9 8 8 8 9 9 10 10 10 10 10 9 8 7
4 4 5 4 4 5 5 6 6 6 7 8 9 10 14 12 11 11 11 11 12 12 13 14 13 13 12 16 9 8 9 8 9 9 8 9 9 9 10 9 9 8 6
4 4 4 4 4 5 5 5 5 6 7 8 9 10 13 9 10 10 11 12 12 12 12 13 12 12 12 13 15 7 8 8 8 8 9 9 9 10 10 10 9 8 8
4 4 4 4 4 4 4 5 5 6 7 8 9 9 9 9 10 11 11 12 12 12 12 12 12 12 12 12 12 12 7 7 8 8 9 9 9 10 10 10 9 9 9
3 3 4 3 4 4 4 5 5 6 7 7 8 8 9 9 10 12 11 12 12 12 12 11 12 16 15 13 12 12 11 11 6 8 11 10 10 11 10 10 10 11 9
3 2 2 3 3 4 5 5 6 6 6 7 7 8 9 9 10 11 11 11 11 12 14 14 11 15 16 21 17 19 19 19 9 7 8 10 12 14 11 10 10 10 11
1 2 2 2 3 4 4 5 6 6 7 7 7 8 9 9 10 11 11 12 12 13 15 12 14 19 20 15 15 20 19 18 15 14 4 6 8 9 9 10 13 9 12
Wind_Direction
204 201 194 193 194 190 189 189 184 170 168 181 173 189 187 181 172 194 200 205 210 213 216 230 234 224 226 220 226 236 242 249 272 290 280 297 284 294 301 304 299 299 296
189 199 209 198 193 198 199 188 178 177 179 182 176 181 175 177 186 202 217 222 220 219 225 223 234 218 224 227 229 234 241 248 266 282 297 289 286 302 302 301 300 298 301
198 203 203 202 203 211 204 194 182 175 167 172 181 178 181 175 190 208 230 240 232 233 234 229 233 222 228 227 228 240 242 242 245 266 285 286 284 293 301 300 301 301 297
185 198 201 200 204 206 203 193 179 172 162 167 172 174 156 131 126 287 272 260 245 243 244 240 236 227 231 230 227 236 243 239 247 260 273 281 287 299 296 301 306 309 311
186 196 201 192 191 190 171 149 143 154 155 160 145 139 125 105 208 238 260 261 258 252 246 242 236 229 225 226 223 237 229 236 249 260 269 276 283 298 303 312 300 311 309
193 205 180 170 164 153 132 125 124 122 119 142 131 138 140 227 247 257 258 273 268 261 260 251 239 219 216 207 209 225 232 235 246 257 264 271 284 297 294 299 305 308 313
100 104 125 132 131 124 122 123 121 123 116 114 111 71 315 288 259 275 285 289 280 273 266 258 242 222 211 216 210 211 206 214 239 251 254 265 284 284 290 290 299 304 303
78 89 109 119 115 115 109 102 97 101 91 92 85 240 270 273 278 272 279 289 282 276 267 258 245 228 210 210 214 217 223 220 220 222 244 261 271 265 272 285 295 294 294
82 87 95 106 110 113 109 102 97 99 136 193 231 254 252 265 264 270 287 291 280 277 271 257 242 231 206 199 205 215 225 233 225 232 242 255 252 250 257 287 287 302 303
85 89 95 98 96 93 94 102 119 147 245 265 258 247 255 271 275 268 273 283 280 275 272 258 227 229 201 193 206 214 226 238 226 223 227 236 237 243 248 255 280 291 298
91 86 81 77 80 78 76 56 41 11 316 282 278 279 276 274 281 269 270 277 270 278 270 260 238 217 213 206 208 211 216 230 220 231 239 241 241 244 247 245 258 274 282
77 72 66 62 58 53 46 31 6 342 317 305 298 295 289 285 274 278 270 260 264 256 262 259 249 221 212 212 213 220 219 206 220 222 230 237 243 247 251 249 253 265 270
74 66 57 55 46 38 32 17 356 349 327 317 311 311 310 314 309 301 290 287 272 254 250 249 246 229 222 223 216 214 206 212 216 221 230 234 237 246 256 249 251 267 272
72 62 53 50 39 34 30 20 3 358 346 337 331 324 321 321 322 325 320 312 302 279 270 260 244 237 228 228 225 213 212 212 217 222 228 233 234 231 234 233 246 272 274
71 58 46 37 26 21 25 15 9 6 356 343 341 337 333 331 337 330 326 317 311 308 296 270 252 238 236 228 226 218 211 214 212 215 226 223 222 229 231 224 234 257 267
63 45 33 29 22 17 9 358 33 4 360 2 356 351 337 341 340 337 329 324 316 301 292 283 270 246 240 237 221 215 212 216 219 217 211 220 220 220 226 220 226 241 267
65 50 43 32 18 9 0 357 349 4 2 355 347 346 346 341 339 334 339 334 325 313 293 284 278 260 237 230 229 220 216 212 213 218 213 208 213 214 210 222 221 236 255
73 54 46 32 17 8 2 356 353 352 345 345 350 343 352 344 339 339 343 338 344 346 334 326 310 292 256 243 238 231 229 215 208 214 212 210 203 203 203 216 218 228 244
55 45 34 30 25 10 1 354 353 348 341 339 336 344 351 344 337 343 347 348 339 335 333 330 320 321 293 261 244 230 222 212 206 207 213 206 200 196 203 213 214 209 222
59 42 32 27 17 10 3 356 353 346 343 339 338 340 342 340 344 345 343 341 335 332 329 324 324 314 314 263 237 225 217 212 211 212 216 204 196 196 200 204 205 206 207
43 40 23 26 18 10 359 356 348 342 336 333 332 336 336 330 334 335 336 338 333 330 326 325 320 323 320 312 245 211 210 210 213 217 213 207 192 194 200 202 202 202 206
46 32 29 28 8 9 358 350 346 342 333 329 329 330 335 329 334 328 334 333 328 325 325 322 320 321 326 328 325 230 209 208 203 213 215 207 192 194 192 195 198 197 196
58 37 33 35 8 1 356 353 347 337 332 327 330 330 331 332 332 327 330 329 327 323 323 320 319 321 325 328 328 333 269 217 220 213 212 203 189 190 189 190 193 193 194
56 42 26 23 22 359 356 345 334 329 326 325 326 327 327 326 328 325 326 326 324 322 321 315 316 321 324 327 327 336 331 323 229 213 205 200 192 185 188 191 190 193 188
63 42 28 16 2 355 342 338 329 325 324 323 322 324 325 325 325 324 325 324 321 319 318 315 314 320 323 324 327 334 336 341 322 211 203 202 195 181 185 188 186 186 182
66 34 10 344 347 342 336 328 325 326 327 322 318 321 325 325 323 324 324 321 323 317 314 315 314 319 321 320 324 330 336 344 354 359 227 196 183 176 179 185 186 182 179